Regional Weather Roundup
Issued by NWS

Home | Current Version | Previous Version | Graphics & Text | Print | Product List | Glossary Off
Versions: 1 2 3 4 5 6 7 8 9 10 11 12 13 14 15 16 17 18 19 20 21 22 23 24 25 26 27 28 29 30 31 32 33 34 35 36 37 38 39 40 41 42 43 44 45 46 47 48 49 50

561
ASUS43 KTOP 190608
RWRKS

WEATHER ROUNDUP FOR KANSAS
NATIONAL WEATHER SERVICE GOODLAND KS
100 AM CDT THU APR 19 2018

NOTE:  "FAIR" INDICATES FEW OR NO CLOUDS BELOW 12,000 FEET WITH NO
SIGNIFICANT WEATHER AND/OR OBSTRUCTIONS TO VISIBILITY.

KSZ001>006-013>018-027>032-041>047-190700-
NORTHWEST KANSAS

CITY           SKY/WX    TMP DP  RH WIND       PRES   REMARKS
GOODLAND       CLEAR     32  21  64 SE6       30.30R
6HR MIN TEMP:  30; 6HR MAX TEMP:  58;

HAYS           CLEAR     36  26  67 NE5       30.31R
HILL CITY      CLEAR     30  24  78 N3        30.31S
6HR MIN TEMP:  29; 6HR MAX TEMP:  58;

RUSSELL        PTCLDY    38  30  73 N6        30.29R
6HR MIN TEMP:  35; 6HR MAX TEMP:  56;

$$

KSZ061>065-074>080-084>089-190700-
SOUTHWEST KANSAS

CITY           SKY/WX    TMP DP  RH WIND       PRES   REMARKS
DODGE CITY     CLEAR     38  25  59 CALM      30.30R
6HR MIN TEMP:  34; 6HR MAX TEMP:  62;

ELKHART        CLEAR     44  20  38 E7        30.31R
GARDEN CITY    CLEAR     36  23  59 E8        30.31R
6HR MIN TEMP:  36; 6HR MAX TEMP:  61;

GREAT BEND     CLEAR     35  27  72 N5        30.31R
LIBERAL        CLEAR     43  20  39 E10       30.31R
PRATT          CLEAR     38  27  64 CALM      30.30S
6HR MIN TEMP:  38; 6HR MAX TEMP:  60;

$$

KSZ066>073-081>083-090>101-190700-
SOUTHEAST KANSAS

CITY           SKY/WX    TMP DP  RH WIND       PRES   REMARKS
CHANUTE        CLEAR     39  27  62 N8        30.27R
6HR MIN TEMP:  39; 6HR MAX TEMP:  54;

COFFEYVILLE    CLEAR     43  31  62 N10       30.27R
6HR MIN TEMP:  42; 6HR MAX TEMP:  57;

HUTCHINSON     CLEAR     38  29  70 N7        30.29R
6HR MIN TEMP:  37; 6HR MAX TEMP:  58;

MEDICINE LODGE   N/A     42  30  62 NW3       30.29R
NEWTON         CLEAR     33  25  72 N8        30.29R
PARSONS        CLEAR     41  30  65 N7        30.28R
6HR MIN TEMP:  40; 6HR MAX TEMP:  56;

WICHITA INTL   CLEAR     43  30  60 NE8       30.29R
6HR MIN TEMP:  43; 6HR MAX TEMP:  58;

WICHITA JABRA  CLEAR     36  28  73 N7        30.29R
6HR MIN TEMP:  36; 6HR MAX TEMP:  56;

WICHITA MCCONL CLEAR     40  28  61 NE8       30.29R
WINFIELD       CLEAR     37  29  72 N6        30.30R
6HR MIN TEMP:  37; 6HR MAX TEMP:  57;

$$

KSZ007>012-019>026-033>040-048>060-102>105-190700-
NORTHEAST KANSAS

CITY           SKY/WX    TMP DP  RH WIND       PRES   REMARKS
CONCORDIA      CLEAR     34  26  72 W6        30.30R
6HR MIN TEMP:  33; 6HR MAX TEMP:  49;

EMPORIA        PTCLDY    35  25  66 W3        30.27R
6HR MIN TEMP:  34; 6HR MAX TEMP:  51;

LAWRENCE       CLEAR     31  26  82 NW6       30.25R
6HR MIN TEMP:  30; 6HR MAX TEMP:  47;

MANHATTAN      CLEAR     34  25  69 NW5       30.29R
6HR MIN TEMP:  34; 6HR MAX TEMP:  51;

MARYSVILLE     CLEAR     32  28  86 NW6       30.27R
OLATHE IND     PTCLDY    35  26  69 W7        30.25R
6HR MIN TEMP:  34; 6HR MAX TEMP:  46;

OLATHE EXE     CLOUDY    35  27  72 NW7       30.23R
6HR MIN TEMP:  35; 6HR MAX TEMP:  45;

SALINA         CLEAR     36  27  69 NW5       30.31R
6HR MIN TEMP:  36; 6HR MAX TEMP:  55;

TOPEKA BILLARD CLEAR     35  27  72 W6        30.26R
6HR MIN TEMP:  35; 6HR MAX TEMP:  48;

TOPEKA FORBES  CLEAR     34  26  72 W8        30.25S
6HR MIN TEMP:  33; 6HR MAX TEMP:  49;

$$




USA.gov is the U.S. government's official web portal to all federal, state and local government web resources and services.